Location: São Paulo
(23.5507°S, 46.6334°W)
Time: 20:21:44
(UTC-03:00)

Vanguard 3 - Visible Passes

Search period start: 16 February 2026 00:00
Search period end: 26 February 2026 00:00
Orbit: 507 x 3205 km, 33.3° (Epoch: 16 February)

Date Brightness Start Highest point End Pass type
(mag) Time Alt. Az. Time Alt. Az. Time Alt. Az.
16 Feb 10.1 01:47:10 21° E 01:47:10 21° E 01:52:08 10° E visible
16 Feb 8.6 03:51:05 48° WNW 03:54:44 90° NE 04:10:35 10° ESE visible
17 Feb 9.0 02:34:03 50° ENE 02:34:03 50° ENE 02:44:34 10° ESE visible
17 Feb 9.3 04:37:58 22° W 04:45:31 68° SSW 05:02:30 10° ESE visible
18 Feb 10.5 01:17:01 13° E 01:17:01 13° E 01:18:22 10° E visible
18 Feb 8.3 03:20:55 74° WNW 03:22:02 89° SSW 03:36:20 10° ESE visible
18 Feb 9.8 05:25:54 10° W 05:36:55 59° S 05:54:50 10° ESE visible
19 Feb 9.5 02:03:52 34° E 02:03:52 34° E 02:10:38 10° ESE visible
19 Feb 9.0 04:07:46 34° W 04:12:38 66° SSW 04:28:10 10° ESE visible
20 Feb 8.5 02:50:42 72° SE 02:50:42 72° SE 03:02:13 10° ESE visible
20 Feb 9.6 04:54:37 13° W 05:03:52 56° S 05:20:30 10° ESE visible
21 Feb 10.1 01:33:39 20° ESE 01:33:39 20° ESE 01:36:55 10° ESE visible
21 Feb 8.6 03:37:33 49° WSW 03:39:59 62° SSW 03:53:55 10° ESE visible
22 Feb 9.1 02:20:29 44° ESE 02:20:29 44° ESE 02:28:17 10° ESE visible
22 Feb 9.4 04:24:23 21° WSW 04:30:59 54° S 04:46:09 10° ESE visible
23 Feb 10.6 01:03:25 10° ESE 01:03:25 10° ESE 01:03:26 10° ESE visible
23 Feb 8.5 03:07:19 58° SSW 03:07:31 58° SSW 03:19:46 10° ESE visible
23 Feb 9.8 05:12:18 10° WSW 05:22:16 55° S 05:38:56 10° E visible
24 Feb 9.8 01:50:15 26° ESE 01:50:15 26° ESE 01:54:34 10° ESE visible
24 Feb 9.1 03:54:10 31° WSW 03:58:20 50° S 04:11:52 10° ESE visible
25 Feb 8.9 02:37:07 46° SSE 02:37:07 46° SSE 02:45:49 10° ESE visible
25 Feb 9.5 04:41:01 12° WSW 04:49:21 52° S 05:04:34 10° E visible
